Location: Bavegemberg
(50.9500°N, 3.8833°E)
Time: 13:33:05
(UTC+00:00)

Cosmos 540 Rocket - Pass Details

Date: 23 May 2024
Orbit: 737 x 751 km, 74.1° (Epoch: 16 June)

Event Time Altitude Azimuth Distance (km) Brightness Sun altitude
Rises 01:07:18 0° 330° (NNW) 3,213 7.3 -15.9°
Reaches altitude 10° 01:09:47 10° 323° (NW) 2,284 6.4 -15.8°
Maximum altitude 01:14:34 39° 256° (WSW) 1,121 4.1 -15.5°
Enters shadow 01:16:56 25° 206° (SSW) 1,493 4.4 -15.4°
